Pagrindinis puslapis
METAR-TAF:

METAR-TAF

Oro uostai :

Camiri, Bolivija

platuma: 20-00S, ilguma: 063-32W, Aukštis: 798 m

Dabartinis oras

Ataskaita buvo paskelbta 46 minutes, ne 16:00 UTC
Ramus vėjas
Temperatūra 26°C
Drėgmė 61%
Slėgis 1015 hPa
Matomumas 10 km arba daugiau
Išsisklaidę debesys ne aukštis 3600 ft
Su prošvaistėmis ne aukštis 7000 ft

METAR: SLCA 071600Z 00000KT 9999 SCT036 BKN070 26/18 Q1015

Laikas: 12:46 (16:46 UTC)


TAF: trūkstamas

Orai ataskaitas ir orų prognozės (METAR, TAF).

turimą stotys yra geltonos ir raudonos taškus žemėlapyje.

Perkelti pele per norėdami pamatyti stoties vardą.

Tada spustelėkite, norėdami matyti oro stebėjimo ir prognozės.

Norėdami pakeisti žemėlapį: spustelėkite ant žalios mygtukų su juodo kryžiaus žemyn,; žalią mygtuką su brūkšneliu, jei norite nutolinti; arba žalių rodyklių gretimoms žemėlapius.


METAR-TAF: